Regional Weather Roundup
Issued by NWS

Home | Current Version | Previous Version | Text Only | Print | Product List | Glossary Off
Versions: 1 2 3 4 5 6 7 8 9 10 11 12 13 14 15 16 17 18 19 20 21 22 23 24 25 26 27 28 29 30 31 32 33 34 35 36 37 38 39 40 41 42 43 44 45 46 47 48 49 50

000
ASUS43 KMPX 140001
RWRMN
WEATHER ROUNDUP FOR MINNESOTA
NATIONAL WEATHER SERVICE TWIN CITIES/CHANHASSEN MN
600 PM CST WED DEC 13 2017


NOTE: "FAIR" INDICATES FEW OR NO CLOUDS BELOW 12,000 FEET WITH NO
SIGNIFICANT WEATHER AND/OR OBSTRUCTIONS TO VISIBILITY. N/A MEANS
CURRENT SKY AND/OR WEATHER CONDITIONS ARE NOT AVAILABLE.

MNZ060>063-068>070-140100-
   Twin Cities Metro

CITY           SKY/WX    TMP DP  RH WIND       PRES   REMARKS
TWIN CITIES    CLOUDY    24  18  77 NW16      29.82R WCI  11
6HR MIN TEMP:  24; 6HR MAX TEMP:  25; 6HR PCP: TRACE;

ST PAUL        CLOUDY    23  17  78 NW14      29.83R WCI  11
CRYSTAL        CLOUDY    23  14  68 NW14      29.82R WCI  11
BLAINE         CLOUDY    25  18  74 NW10      29.81R WCI  15
LAKEVILLE      FLURRIES  21  18  86 NW16      29.79R WCI   7
EDEN PRAIRIE   CLOUDY    24  16  71 NW12      29.81R WCI  13
6HR MIN TEMP:  24; 6HR MAX TEMP:  27;

SOUTH ST PAUL  CLOUDY    24  17  74 NW15      29.81R WCI  12
LAKE ELMO      MOCLDY    23  19  86 NW9       29.82R WCI  13
$$
MNZ001>005-007-008-013>017-022>024-027-028-140100-
   Northwest Minnesota

CITY           SKY/WX    TMP DP  RH WIND       PRES   REMARKS
BEMIDJI        FLURRIES  14  10  83 NW6       29.89R WCI   5
HALLOCK        CLOUDY    18  14  86 N15       29.95S WCI   3
ROSEAU         CLOUDY    16  10  79 N5        29.93R WCI   9
WARROAD        PTCLDY     9   5  85 NW3       29.93S
THIEF RVR FALL FLURRIES  16  12  86 N7        29.94R WCI   6
CROOKSTON      FLURRIES  18  16  93 N15       29.96R WCI   3
FOSSTON        LGT SNOW  16  12  86 N8        29.91R WCI   5
DETROIT LAKES  CLOUDY    19  18  93 N7        29.90R WCI  10
MOORHEAD       LGT RAIN  19  16  86 N18G24    29.94R WCI   4
PARK RAPIDS    CLOUDY    17  11  77 N8        29.86R WCI   7
MAHNOMEN       CLOUDY    18  13  81 N15       29.89R WCI   4
$$
MNZ006-009>011-018-025>026-140100-
   North Central Minnesota

CITY           SKY/WX    TMP DP  RH WIND       PRES   REMARKS
BAUDETTE       CLOUDY    11   7  84 NW7       29.91R WCI   0
FLAG ISLAND    CLOUDY     7   3  85 CALM      29.91F
INTL FALLS     CLOUDY    17  12  80 N7        29.88R WCI   8
6HR MIN TEMP:  17; 6HR MAX TEMP:  19; 6HR PCP: TRACE;

WASKISH        FLURRIES  16  12  86 NW5       29.91R WCI   9
BIG FORK       CLOUDY    18  12  79 N6        29.86R WCI   9
LONGVILLE      CLOUDY    16  10  79 W3        29.85R
GRAND RAPIDS   CLOUDY    19  14  81 N10       29.86R WCI   7
CRANE LAKE     CLOUDY    12  10  92 CALM      29.87S
ORR            CLOUDY    16  10  79 NW5       29.83R WCI   9
COOK           CLOUDY    16  12  86 NW5       29.85R WCI   9
WALKER         CLOUDY    15  10  83 N6        29.88R WCI   6
$$
MNZ012-019>021-037-140100-
   Northeast Minnesota

CITY           SKY/WX    TMP DP  RH WIND       PRES   REMARKS
DULUTH         FLURRIES  18  15  88 N8        29.80R WCI   8
6HR MIN TEMP:  18; 6HR MAX TEMP:  22; 6HR PCP:  0.02;

ELY            CLOUDY    12   9  85 CALM      29.83R
HIBBING        CLOUDY    17  12  80 N10       29.84R WCI   5
EVELETH        CLOUDY    17  11  77 N8        29.84R WCI   7
DULUTH HARBOR  FLURRIES  27  21  80 N14       29.84R WCI  15
TWO HARBORS    CLOUDY    23  18  80 N5        29.81R WCI  17
SILVER BAY     FLURRIES  18  12  79 CALM      29.81R
GRAND MARAIS     N/A     13   4  67 N13G20    29.84R WCI  -2
G MARAIS ARPRT CLEAR      3  -2  78 NW9       29.76R WCI -11
$$
MNZ029>031-032-039>041-046>048-054>057-064-140100-
   West Central Minnesota

CITY           SKY/WX    TMP DP  RH WIND       PRES   REMARKS
FERGUS FALLS   CLOUDY    19  16  86 N17G24    29.92S WCI   4
WHEATON        CLOUDY    25  21  86 N14G22    29.93S WCI  13
MORRIS         CLOUDY    25  21  86 N20G28    29.88R WCI  11
ALEXANDRIA     CLOUDY    22  16  78 N20G25    29.86R WCI   7
ELBOW LAKE     CLOUDY    22  19  87 N16G25    29.89R FOG     WCI   8
WADENA         CLOUDY    18  14  86 N7        29.87R WCI   8
GLENWOOD       PTCLDY    21  18  86 N17       29.86R WCI   7
APPLETON       CLOUDY    27  23  86 N18G28    29.90R WCI  13
BENSON         CLOUDY    27  19  74 N13       29.90R WCI  16
ORTONVILLE     CLOUDY    27  23  86 N21G26    29.90R WCI  13
MADISON        CLOUDY    30  27  86 N16       29.91R WCI  19
WILLMAR        CLOUDY    27  19  74 N14G20    29.88R WCI  15
$$
MNZ033>034-036-042>043-049>051-058-059-140100-
   Central Minnesota

CITY           SKY/WX    TMP DP  RH WIND       PRES   REMARKS
ST CLOUD       CLOUDY    20  14  77 N9        29.86R WCI   9
6HR MIN TEMP:  19; 6HR MAX TEMP:  24; 6HR PCP: TRACE;

SAUK CENTRE    FLURRIES  21  15  79 N12G17    29.87R WCI   9
PAYNESVILLE    FLURRIES  23  19  86 N10G18    29.87R WCI  12
AITKIN         CLOUDY    16  12  86 NW3       29.83R
PINE RIVER     CLOUDY    16  10  79 NW7       29.90R WCI   6
BRAINERD       CLOUDY    17  11  77 NW10      29.86R WCI   5
STAPLES        PTCLDY    12   9  85 N7        29.87R WCI   2
LONG PRAIRIE   CLOUDY    19  16  86 NW9       29.86R WCI   9
LITTLE FALLS   CLOUDY    21  10  63 N6        29.87R WCI  14
LITCHFIELD     CLOUDY    25  19  80 N9        29.87R WCI  15
BUFFALO        CLOUDY    22  16  77 NW8       29.86R WCI  12
MAPLE LAKE     FLURRIES  23  18  82 NW10      29.87R WCI  12
HUTCHINSON     CLOUDY    25  20  82 NW14      29.86R WCI  13
$$
MNZ037-044-045-052-053-140100-
   East Central Minnesota

CITY           SKY/WX    TMP DP  RH WIND       PRES   REMARKS
PRINCETON      PTCLDY    19  16  86 NW7       29.84R WCI  10
MORA           MOCLDY    19  14  79 NW15      29.85R WCI   5
CAMBRIDGE      CLEAR     21  12  68 NW8       29.83R WCI  12
RUSH CITY      CLEAR     20  16  85 NW6       29.83R WCI  12
MOOSE LAKE     CLOUDY    23  18  80 N7        29.80R WCI  15
HINCKLEY       MOCLDY    23  19  86 NW6       29.82R WCI  16
CLOQUET        FLURRIES  19  14  79 N7G17     29.81R WCI  10
MCGREGOR       CLOUDY    21  18  86 NW9       29.84R WCI  11
$$
MNZ071>073-080-081-089-090-097-098-140100-
   Southwest Minnesota

CITY           SKY/WX    TMP DP  RH WIND       PRES   REMARKS
MONTEVIDEO     CLOUDY    27  21  80 N25G32    29.89R WCI  11
GRANITE FALLS  CLOUDY    29  25  84 NW21G26   29.89R WCI  16
CANBY          CLOUDY    32  29  88 NW12G17   29.89R WCI  23
MARSHALL       CLOUDY    30  27  88 N16       29.87R WCI  19
REDWOOD FALLS  CLOUDY    29  20  69 N15G24    29.86R WCI  18
OLIVIA         CLOUDY    30  25  80 N16       29.86R WCI  19
PIPESTONE      CLOUDY    30  27  86 N13G21    29.85R WCI  20
WINDOM           N/A     28  16  59 NW17G28   29.84R WCI  16
WORTHINGTON    CLOUDY    30  26  85 NW17G23   29.85R WCI  18
JACKSON        CLOUDY    30  23  74 MISG      29.82R
SLAYTON        CLOUDY    30  27  87 NW16      29.84R WCI  19
$$
MNZ065>067-074>077-082>085-091>093-140100-
   South Central Minnesota

CITY           SKY/WX    TMP DP  RH WIND       PRES   REMARKS
MANKATO        FLURRIES  25  21  85 N16       29.83R WCI  12
NEW ULM        CLOUDY    27  19  74 N14G26    29.84R WCI  15
ST JAMES       CLOUDY    28  21  74 NW25G35   29.85R WCI  14
FAIRMONT       CLOUDY    29  21  72 N25G38    29.82R WCI  14
GLENCOE        FLURRIES  25  20  82 N13G18    29.85R WCI  14
FARIBAULT      FLURRIES  25  19  80 NW15      29.80R WCI  12
OWATONNA       FLURRIES  25  19  80 NW16      29.78R WCI  12
WASECA         LGT SNOW  25  21  86 NW21      29.82R WCI  10
$$
MNZ078>079-086>088-094>096-140100-
   Southeast Minnesota

CITY           SKY/WX    TMP DP  RH WIND       PRES   REMARKS
ROCHESTER      CLOUDY    22  18  85 N20G29    29.73R WCI   7
6HR MIN TEMP:  22; 6HR MAX TEMP:  26;

RED WING       CLOUDY    25  16  68 NW9       29.79R WCI  15
STANTON        CLOUDY    25  19  76 NW13G22   29.79R WCI  14
DODGE CENTER   FLURRIES  21  18  86 NW21G26   29.74R WCI   6
WINONA           N/A     25  16  68 N10G17    29.77R WCI  15
AUSTIN         CLOUDY    25  18  74 N22G28    29.75R WCI  10
PRESTON        CLOUDY    22  17  79 N17G28    29.72R WCI   8
$$
ABBREVIATIONS USED IN REMARKS
   TC - TEMPERATURES IN CELSIUS
  WCI - WIND CHILL INDEX
   HX - HEAT INDEX
  VSB - VISIBILITY
$$




USA.gov is the U.S. government's official web portal to all federal, state and local government web resources and services.